Lapse_Rate
4.1 5.6 8.0 9.1 7.5 7.2 9.0 8.9 8.4 7.6 7.2 5.9 7.5 5.5 4.3 4.6 4.2 5.1 4.7 6.1 6.2 8.3
4.0 4.3 5.6 7.8 8.7 8.9 8.6 8.9 8.0 7.5 5.9 6.8 5.9 6.3 4.5 3.0 2.8 3.9 4.0 5.1 6.7 6.8
3.7 4.2 4.9 8.0 8.7 9.4 9.5 9.0 8.0 7.4 5.8 6.0 5.9 5.3 5.3 4.6 3.7 3.9 4.3 3.7 3.7 5.6
5.0 4.1 4.4 7.3 8.3 8.7 9.0 8.8 8.6 7.2 5.7 6.0 6.3 5.7 5.0 5.0 3.3 4.7 5.0 3.7 5.4 4.9
4.1 2.8 1.9 3.8 7.9 8.7 8.0 8.4 8.5 7.9 7.3 6.9 6.1 5.5 5.5 5.0 4.7 4.4 5.3 4.1 3.7 5.3
2.9 0.2 -2.0 -0.8 0.4 -0.3 5.9 6.1 3.6 4.3 2.5 3.1 4.0 4.8 4.7 4.8 5.3 5.1 4.4 3.9 3.9 5.7
2.1 -0.5 -1.6 -1.9 -3.4 -2.0 -1.9 -1.8 -2.8 -3.1 -3.2 -3.3 -3.2 -2.1 0.1 3.7 3.6 3.6 3.6 4.3 4.5 5.1
2.7 1.9 0.5 -1.0 -1.2 -1.8 -2.5 -2.9 -2.5 -2.0 -3.0 -3.5 -3.6 -3.5 -2.8 1.6 2.6 3.0 3.3 1.9 2.5 1.5
2.3 1.7 2.2 1.9 1.9 0.3 -0.1 -0.8 -1.7 -2.6 -3.2 -2.9 -3.1 -3.1 -2.7 -0.8 0.2 -0.4 -0.9 -0.8 -0.7 0.4
3.5 1.9 1.7 1.5 1.3 1.0 1.0 1.0 0.4 -0.2 -1.2 -3.0 -4.0 -3.0 -3.2 -2.8 -2.2 -2.5 -3.5 -3.2 -2.2 -1.0
2.7 3.4 3.2 3.1 2.3 1.4 1.6 1.6 0.8 1.4 1.1 -0.4 -0.2 -1.3 -1.9 -2.7 -2.1 -3.3 -1.8 -3.3 -3.7 -3.1
4.3 3.8 3.8 4.3 4.7 3.2 3.7 2.5 1.8 2.2 1.6 1.5 0.9 0.1 0.1 -1.0 -0.7 -0.3 -1.0 -1.5 -2.0 -1.2
4.4 3.6 4.2 4.4 4.3 4.1 3.8 4.1 3.0 2.9 3.2 2.6 1.6 0.5 1.1 -0.4 -0.3 -0.2 -0.6 0.2 -0.2 -0.6
3.4 3.3 3.1 2.9 2.6 3.3 4.2 3.8 4.8 4.0 2.9 2.7 3.0 3.2 2.8 1.7 1.1 1.4 1.0 -0.2 -0.5 0.2
Wind_Speed
18 12 15 18 16 14 14 14 16 17 16 17 19 16 14 12 12 14 13 16 14 13
16 17 17 23 19 15 20 14 15 16 17 17 16 16 16 12 14 14 14 14 15 11
16 16 18 21 21 19 19 14 14 17 16 15 16 15 15 13 13 14 12 11 13 13
13 14 17 20 19 18 17 15 15 16 15 16 15 14 14 14 12 15 13 12 13 14
12 12 12 15 15 14 16 15 15 16 17 16 12 11 13 12 11 13 15 13 10 11
13 14 18 17 16 17 7 4 7 4 7 5 5 8 8 9 10 11 12 9 8 8
18 20 19 19 20 18 17 16 14 16 15 13 12 11 9 4 7 6 6 5 4 3
20 20 21 21 20 20 20 18 16 14 15 15 15 11 9 6 7 6 7 10 9 9
19 21 20 21 20 21 20 19 19 19 17 17 12 22 23 15 10 11 10 9 9 8
19 22 20 19 19 21 20 18 19 19 18 20 18 23 25 23 13 12 13 12 10 8
22 19 18 18 19 18 16 15 18 17 18 19 18 29 23 20 12 12 11 14 14 11
19 19 18 17 16 16 12 16 17 13 18 18 21 34 29 19 13 10 11 11 15 12
17 18 17 16 16 14 12 14 14 17 14 24 17 32 30 21 10 12 9 10 10 23
17 17 17 17 17 15 15 15 15 16 17 20 20 17 26 27 10 7 7 9 9 8
Wind_Direction
284 273 264 253 256 258 212 218 205 209 209 211 209 199 193 193 202 201 202 199 202 223
282 272 260 255 255 247 259 207 207 200 204 210 208 202 192 192 200 201 202 205 211 212
286 273 260 257 245 240 243 223 203 202 198 200 202 197 192 194 200 202 206 202 203 216
298 287 268 250 244 236 236 223 211 205 194 197 201 195 197 199 192 200 201 201 210 212
327 330 20 5 257 225 224 226 218 212 201 195 194 192 192 192 192 194 202 198 200 213
5 20 32 24 18 28 8 351 28 53 63 85 133 160 163 180 185 197 193 180 189 209
27 33 33 32 32 35 37 48 48 56 55 47 43 37 37 139 147 140 115 131 170 161
31 37 40 39 35 39 39 38 40 48 54 49 40 21 6 32 80 95 81 61 50 50
30 36 41 43 39 43 42 37 39 38 42 48 39 27 30 42 51 59 56 51 36 25
28 38 35 37 42 44 42 39 44 40 39 46 40 34 45 48 52 45 47 38 37 30
30 33 35 34 41 50 39 40 47 41 37 45 40 38 39 53 57 64 36 45 37 28
30 33 29 33 34 43 38 44 48 48 41 40 44 40 34 45 42 50 39 37 36 29
32 34 33 31 32 33 39 43 42 48 44 40 43 40 35 39 39 32 32 34 32 30
29 33 29 30 31 30 36 42 37 40 38 33 33 30 39 36 33 38 28 32 27 25